ブルーイントン彗星

154P/Brewington (2013)

English version
Home page
Updated on April 12, 2009

---------------------------------------------------------------------

・ プロフィール

・ 軌道要素

Perturbed ephemeris below is based on elements from MPC 46622. 

 Epoch = 2456640.50000 TT   T = 2456638.74162 TT
 Peri. =   49.03366         a =     4.8800237 AU
 Node  =  343.49582 J2000.0 e =     0.6705250
 Incl. =   17.83245         q =     1.6078458 AU

・ 星図

・ 光度変化

        m1 = 11.6 + 5 logΔ + 10.7 log r  [    ,-105]  (              〜2013年 8月29日)
        m1 =  0.0 + 5 logΔ + 50   log r  [-105, 105]  (2013年 8月29日〜2014年 3月27日)
        m1 = 11.6 + 5 logΔ + 10.7 log r  [ 105,    ]  (2014年 3月27日〜              )

---------------------------------------------------------------------

軌道要素はMinor Planet & Comet Ephemeris Serviceで計算したものです。
星図はステラナビゲータ Ver.8 (アストロアーツ) で作成したものです。
光度グラフはComet for Windowsで作成したものです。

---------------------------------------------------------------------

Copyright(C) Seiichi Yoshida (comet@aerith.net). All rights reserved.